User: anonymous   Login
Location: Unspecified
(0.0000°N, 0.0000°E)
Time: 10:01:41
(UTC+00:00)
Language:

STARLINK-33591 - Orbit

View from above orbital plane
View from above orbital plane
View from above satellite
View from above satellite

Ground track
Ground track

The orbit is defined by the following mean orbital elements,

1 62777U          26145.21274009 +.00000000 +00000-0 +71640-3 0 00006
2 62777  53.1601 326.5528 0000987  83.8455 276.2660 15.34423887    09
Epoch (UTC): 25 May 2026 05:06:20
Eccentricity: 0.0000987
inclination: 53.1601°
perigee height: 462 km
apogee height: 463 km
right ascension of ascending node: 326.5528°
argument of perigee: 83.8455°
revolutions per day: 15.34423887
mean anomaly at epoch: 276.2660°

The dashed part of the orbit path shows where the satellite is in the earth's shadow,  

DLR